TimeEST,TemperatureF,Dew PointF,Humidity,Sea Level PressureIn,VisibilityMPH,Wind Direction,Wind SpeedMPH,Gust SpeedMPH,PrecipitationIn,Events,Conditions,WindDirDegrees,DateUTC
12:54 AM,54.0,50.0,86,29.67,10.0,SW,9.2,-,N/A,,Overcast,230,2012-12-16 05:54:00
1:54 AM,54.0,50.0,86,29.66,10.0,WSW,9.2,17.3,N/A,,Overcast,240,2012-12-16 06:54:00
2:54 AM,53.1,48.9,86,29.67,10.0,WSW,11.5,-,N/A,,Overcast,240,2012-12-16 07:54:00
3:54 AM,52.0,48.9,89,29.67,10.0,WSW,8.1,-,N/A,,Overcast,240,2012-12-16 08:54:00
4:46 AM,51.8,46.4,82,29.66,10.0,SW,10.4,-,N/A,,Overcast,230,2012-12-16 09:46:00
4:54 AM,51.1,46.9,86,29.66,10.0,SW,10.4,-,N/A,,Mostly Cloudy,230,2012-12-16 09:54:00
5:03 AM,51.8,46.4,82,29.66,10.0,SW,12.7,18.4,N/A,,Mostly Cloudy,230,2012-12-16 10:03:00
5:38 AM,50.0,46.4,87,29.65,10.0,SW,10.4,-,N/A,,Overcast,230,2012-12-16 10:38:00
5:54 AM,50.0,46.9,89,29.66,10.0,SW,11.5,20.7,N/A,,Overcast,230,2012-12-16 10:54:00
6:03 AM,50.0,46.4,87,29.66,10.0,WSW,9.2,-,N/A,,Overcast,240,2012-12-16 11:03:00
6:18 AM,50.0,46.4,87,29.66,10.0,WSW,8.1,-,N/A,,Overcast,240,2012-12-16 11:18:00
6:38 AM,50.0,46.4,87,29.66,9.0,SW,6.9,-,N/A,,Overcast,230,2012-12-16 11:38:00
6:45 AM,50.0,46.4,87,29.66,9.0,SW,6.9,-,N/A,,Overcast,230,2012-12-16 11:45:00
6:54 AM,48.9,46.0,90,29.67,9.0,WSW,8.1,-,N/A,,Overcast,240,2012-12-16 11:54:00
7:54 AM,48.9,46.0,90,29.68,10.0,WSW,5.8,-,N/A,,Overcast,240,2012-12-16 12:54:00
8:39 AM,48.2,46.4,93,29.68,8.0,WSW,10.4,-,N/A,,Overcast,240,2012-12-16 13:39:00
8:54 AM,48.0,46.0,93,29.69,7.0,WSW,4.6,-,N/A,,Overcast,240,2012-12-16 13:54:00
9:54 AM,48.9,46.0,90,29.69,7.0,WSW,8.1,-,N/A,,Overcast,240,2012-12-16 14:54:00
10:54 AM,48.9,45.0,86,29.71,9.0,West,10.4,-,N/A,,Overcast,260,2012-12-16 15:54:00
11:50 AM,48.2,42.8,82,29.68,10.0,West,9.2,-,N/A,,Overcast,260,2012-12-16 16:50:00
11:54 AM,48.9,43.0,80,29.68,10.0,West,11.5,-,N/A,,Overcast,260,2012-12-16 16:54:00
12:54 PM,50.0,39.9,68,29.68,10.0,WSW,10.4,-,N/A,,Overcast,240,2012-12-16 17:54:00
1:54 PM,48.9,41.0,74,29.65,10.0,WSW,10.4,-,N/A,,Overcast,250,2012-12-16 18:54:00
2:54 PM,46.9,42.1,83,29.65,10.0,WNW,9.2,-,N/A,,Overcast,300,2012-12-16 19:54:00
3:54 PM,46.0,41.0,83,29.68,10.0,West,9.2,-,N/A,,Overcast,280,2012-12-16 20:54:00
4:50 PM,42.8,37.4,81,29.69,10.0,West,10.4,-,N/A,,Overcast,270,2012-12-16 21:50:00
5:19 PM,42.8,37.4,81,29.69,10.0,West,5.8,-,N/A,,Overcast,280,2012-12-16 22:19:00
5:54 PM,43.0,37.9,82,29.70,10.0,West,8.1,-,N/A,,Overcast,280,2012-12-16 22:54:00
6:20 PM,42.8,37.4,81,29.70,10.0,WNW,10.4,-,N/A,,Overcast,300,2012-12-16 23:20:00
6:54 PM,42.1,37.9,85,29.70,9.0,WNW,5.8,-,N/A,,Overcast,300,2012-12-16 23:54:00
7:54 PM,41.0,37.9,89,29.73,8.0,WNW,8.1,-,N/A,,Overcast,300,2012-12-17 00:54:00
8:13 PM,41.0,37.4,87,29.72,9.0,WNW,5.8,-,N/A,,Overcast,300,2012-12-17 01:13:00
8:39 PM,41.0,37.4,87,29.72,9.0,NW,4.6,-,N/A,,Overcast,310,2012-12-17 01:39:00
8:54 PM,41.0,37.0,86,29.74,10.0,West,4.6,-,N/A,,Overcast,280,2012-12-17 01:54:00
9:54 PM,39.9,37.0,89,29.74,10.0,West,4.6,-,N/A,,Overcast,280,2012-12-17 02:54:00
10:09 PM,39.2,37.4,93,29.74,10.0,West,4.6,-,N/A,,Overcast,280,2012-12-17 03:09:00
10:54 PM,39.9,37.0,89,29.75,10.0,NW,4.6,-,N/A,,Overcast,310,2012-12-17 03:54:00
11:54 PM,39.9,36.0,86,29.74,10.0,NW,3.5,-,N/A,,Overcast,310,2012-12-17 04:54:00